Liberia, Costa Rica

11:26 AM CST on February 19, 2017 (GMT -0600)
Liberia

Weather History for 78774 - August, 2014

Change the Weather History Date:

Saturday, August 9, 2014

  Actual Average Record
Temperature  
Mean Temperature 81 °F -  
Max Temperature 93 °F 86 °F - ()
Min Temperature 69 °F 74 °F - ()
Cooling Degree Days 16    
Growing Degree Days 31 (Base 50)    
Moisture  
Dew Point 72 °F    
Average Humidity 80    
Maximum Humidity 100    
Minimum Humidity 46    
Precipitation  
Precipitation 0.04 in - - ()
Sea Level Pressure  
Sea Level Pressure 29.89 in    
Wind  
Wind Speed 3 mph ()    
Max Wind Speed 12 mph    
Max Gust Speed -    
Visibility 6.3 miles    
Events Fog , Rain , Thunderstorm    
T = Trace of Precipitation, MM = Missing Value Source: Averaged Metar Reports

Daily Weather History Graph

Daily Weather History Graph

Search for Another Location

Airport or City:

Trip Planner

Search our weather history database for the weather conditions in past years. The results will help you decide how hot, cold, wet, or windy it might be!

Date:

Astronomy

Aug. 09, 2014 Rise Set
Actual Time 5:32 AM CST 6:03 PM CST
Civil Twilight 5:10 AM CST 6:25 PM CST
Nautical Twilight 4:44 AM CST 6:50 PM CST
Astronomical Twilight 4:18 AM CST 7:16 PM CST
Moon 5:08 PM CST (8/9) 4:12 AM CST (8/9)
Length of Visible Light 13h 15m
Length of Day
12h 31m
Waxing Gibbous, 98% of the Moon is Illuminated
Aug 9
Waxing Gibbous
Aug 10
Full
Aug 17
Last Quarter
Aug 25
New
Sep 2
First Quarter

Hourly Weather History & Observations

Time (CST) Temp. Heat Index Dew Point Humidity Pressure Visibility Wind Dir Wind Speed Gust Speed Precip Events Conditions
6:00 AM 69 °F - 69 °F 99% 29.93 in 0 mi Calm Calm - - Fog Heavy Fog
6:00 AM 69.8 °F - 68.0 °F 94% 29.89 in 0.1 mi Calm Calm - N/A Fog Fog
7:00 AM 69.8 °F - 69.8 °F 100% 29.91 in 1.2 mi ENE 3.5 mph - N/A   Overcast
7:01 AM 71.6 °F - 69.8 °F 94% 29.91 in 3.1 mi ENE 3.5 mph - N/A   Overcast
7:05 AM 71.6 °F - 71.6 °F 100% - 6.2 mi ENE 3.5 mph - N/A   Overcast
8:00 AM 77.0 °F - 75.2 °F 94% 29.92 in - ENE 2.3 mph - N/A   Clear
9:00 AM 81 °F - 73 °F 70% 29.96 in 12 mi West 2.3 mph - -   Overcast
9:00 AM 82.4 °F 88.2 °F 73.4 °F 74% 29.93 in - West 2.3 mph - N/A   Clear
10:00 AM 86.0 °F 90.4 °F 69.8 °F 58% 29.92 in 6.2 mi North 3.5 mph - N/A   Overcast
11:00 AM 87.8 °F 93.8 °F 71.6 °F 58% 29.91 in 6.2 mi SSE 4.6 mph - N/A   Overcast
12:00 PM - - - %  in 12 mi SSW 6.9 mph - -   Overcast
12:00 PM 89.6 °F 94.7 °F 69.8 °F 52% 29.88 in 6.2 mi SSW 6.9 mph - N/A   Scattered Clouds
1:00 PM 91.4 °F 95.4 °F 68.0 °F 46% 29.87 in 6.2 mi SSE 6.9 mph - N/A Rain Rain
1:10 PM 86.0 °F 90.4 °F 69.8 °F 58% 29.87 in 6.2 mi NW 10.4 mph - N/A Rain , Thunderstorm Thunderstorms and Rain
2:00 PM 78.8 °F - 71.6 °F 78% 29.85 in 6.2 mi WNW 11.5 mph - N/A Rain , Thunderstorm Light Thunderstorms and Rain
3:00 PM 78 °F - 74 °F 84% 29.85 in 12 mi West 8.1 mph - -   Overcast
3:00 PM 78.8 °F - 73.4 °F 83% 29.84 in 6.2 mi West 8.1 mph - N/A   Mostly Cloudy
4:00 PM 80.6 °F 87.1 °F 77.0 °F 89% 29.85 in 6.2 mi WNW 4.6 mph - N/A   Mostly Cloudy
5:00 PM 82.4 °F 88.2 °F 73.4 °F 74% 29.87 in 6.2 mi WSW 5.8 mph - N/A   Mostly Cloudy
5:10 PM 80.6 °F 85.4 °F 73.4 °F 79% 29.88 in 6.2 mi South 3.5 mph - N/A Rain Rain
6:00 PM 78 °F - 74 °F 84% 29.87 in 12 mi SE 5.8 mph - -   Overcast
6:00 PM 78.8 °F - 73.4 °F 83% 29.87 in 6.2 mi SE 5.8 mph - N/A   Mostly Cloudy
7:00 PM 77.0 °F - 75.2 °F 94% 29.87 in 6.2 mi ENE 3.5 mph - N/A   Mostly Cloudy
8:00 PM 75.2 °F - 73.4 °F 94% 29.88 in 6.2 mi East 2.3 mph - N/A   Mostly Cloudy